N6YV Weather Reports


Display with metric or nautical units.
time (UTC)temp
F
wind
direction
speed
MPH
gust
MPH
rain 1hr
in
rain 24hr
in
rain mn
in
humidity
%
barometer
mb
20260503004530 56 76 3.0 0.0 0.00 0.00 0.05 67 1004.0
20260503003026 58 134 8.0 0.0 0.00 0.00 0.05 63 1004.0
20260503001526 65 129 5.0 0.0 0.00 0.00 0.00 36 1003.3
20260503000023 66 130 2.0 0.0 0.00 0.00 0.00 32 1002.9
20260502234525 66 115 4.0 0.0 0.00 0.00 0.00 31 1002.7
20260502233022 67 147 8.0 0.0 0.00 0.00 0.00 30 1002.7
20260502231524 69 143 3.0 0.0 0.00 0.00 0.00 28 1002.6
20260502230021 69 141 5.0 0.0 0.00 0.00 0.00 27 1002.7
20260502224523 69 146 2.0 0.0 0.00 0.00 0.00 27 1002.8
20260502223018 68 244 7.0 0.0 0.00 0.00 0.00 28 1003.0
20260502221518 68 154 3.0 0.0 0.00 0.00 0.00 30 1003.2
20260502220015 68 148 4.0 0.0 0.00 0.00 0.00 30 1003.6
20260502214515 67 205 5.0 0.0 0.00 0.00 0.00 29 1003.6
20260502213013 65 232 13.0 0.0 0.00 0.00 0.00 27 1003.8
20260502211528 67 244 9.0 0.0 0.00 0.00 0.00 26 1004.2
20260502210015 68 167 6.0 0.0 0.00 0.00 0.00 28 1004.6
20260502204511 68 209 5.0 0.0 0.00 0.00 0.00 27 1004.1
20260502203012 68 212 5.0 0.0 0.00 0.00 0.00 27 1004.2
20260502201509 68 211 5.0 0.0 0.00 0.00 0.00 27 1004.3
20260502200008 69 132 6.0 0.0 0.00 0.00 0.00 26 1004.4
20260502194507 69 221 6.0 0.0 0.00 0.00 0.00 25 1004.6
20260502193007 69 204 5.0 0.0 0.00 0.00 0.00 25 1004.6
20260502191506 70 161 7.0 0.0 0.00 0.00 0.00 25 1004.5
20260502190005 71 165 7.0 0.0 0.00 0.00 0.00 24 1004.7
20260502184502 70 144 7.0 0.0 0.00 0.00 0.00 25 1004.8
20260502183107 68 142 4.0 0.0 0.00 0.00 0.00 28 1005.0
20260502181554 66 69 1.0 0.0 0.00 0.00 0.00 34 1005.1
20260502163042 60 15 3.0 0.0 0.00 0.00 0.00 37 1005.5
20260502161539 59 310 2.0 0.0 0.00 0.00 0.00 39 1005.5
20260502151531 54 242 1.0 0.0 0.00 0.00 0.00 43 1005.9
20260502123018 51 254 5.0 0.0 0.00 0.00 0.00 39 1005.1
20260502121515 51 254 4.0 0.0 0.00 0.00 0.00 37 1005.1
20260502114512 53 269 5.0 0.0 0.00 0.00 0.00 33 1005.2
20260502113010 53 258 4.0 0.0 0.00 0.00 0.00 32 1005.3
20260502111510 52 243 2.0 0.0 0.00 0.00 0.00 33 1005.4
20260502110009 52 251 5.0 0.0 0.00 0.00 0.00 35 1005.4
20260502104507 51 288 2.0 0.0 0.00 0.00 0.00 35 1005.4
20260502103003 52 255 2.0 0.0 0.00 0.00 0.00 33 1005.2
20260502101503 52 253 1.0 0.0 0.00 0.00 0.00 30 1005.3
20260502100104 54 252 2.0 0.0 0.00 0.00 0.00 28 1005.2
20260502090107 55 249 5.0 0.0 0.00 0.00 0.00 24 1005.8
20260502071534 57 258 5.0 0.0 0.00 0.00 0.00 23 1006.5
20260502070050 56 254 4.0 0.0 0.00 0.00 0.00 25 1006.5
20260502064532 57 251 4.0 0.0 0.00 0.00 0.00 25 1006.4
20260502063036 58 246 4.0 0.0 0.00 0.00 0.00 25 1006.4
20260502061528 58 261 5.0 0.0 0.00 0.00 0.00 25 1006.4
20260502060028 58 252 6.0 0.0 0.00 0.00 0.00 26 1006.4
20260502054528 58 266 6.0 0.0 0.00 0.00 0.00 26 1006.5
20260502053027 58 245 6.0 0.0 0.00 0.00 0.00 24 1006.5
20260502051527 58 262 7.0 0.0 0.00 0.00 0.00 22 1006.6
20260502050027 59 254 4.0 0.0 0.00 0.00 0.00 21 1006.6
20260502044526 59 263 5.0 0.0 0.00 0.00 0.00 21 1006.6
20260502043026 59 245 5.0 0.0 0.00 0.00 0.00 21 1006.3
20260502041526 59 219 4.0 0.0 0.00 0.00 0.00 21 1006.3
20260502040027 60 272 5.0 0.0 0.00 0.00 0.00 21 1006.2
20260502034528 60 211 2.0 0.0 0.00 0.00 0.00 17 1005.9
20260502033024 61 211 1.0 0.0 0.00 0.00 0.00 17 1005.5
20260502031523 62 117 3.0 0.0 0.00 0.00 0.00 16 1005.4
20260502030024 64 112 2.0 0.0 0.00 0.00 0.00 15 1005.2
20260502024523 66 112 2.0 0.0 0.00 0.00 0.00 13 1005.2
20260502023022 67 121 4.0 0.0 0.00 0.00 0.00 13 1005.1
20260502021521 67 74 3.0 0.0 0.00 0.00 0.00 13 1005.1
20260502020021 68 24 5.0 0.0 0.00 0.00 0.00 13 1005.1
20260502014521 69 38 3.0 0.0 0.00 0.00 0.00 12 1005.1
20260502013019 70 61 2.0 0.0 0.00 0.00 0.00 13 1005.2
20260502011523 70 201 1.0 0.0 0.00 0.00 0.00 15 1005.2
20260502010018 70 200 2.0 0.0 0.00 0.00 0.00 15 1005.3